Probability
0 0 0 0 0 0 0 0 0 0 0 0 0 0 0 0 0 0 0 0 0 0 0 0 0 0 0 0 0 0 0 0 0 0 0 0 0 0 1 2 3 3 3 2
0 0 0 0 0 0 0 0 0 0 0 0 0 0 0 0 0 0 0 0 0 0 0 0 0 0 0 0 0 0 0 0 0 0 0 0 0 0 1 2 3 3 3 3
0 0 0 0 0 0 0 0 0 0 0 0 0 0 0 0 0 0 0 0 0 0 0 0 0 0 0 0 0 0 0 0 0 0 0 0 0 0 0 1 1 2 2 2
0 0 0 0 0 0 0 0 0 0 0 0 0 0 0 0 0 0 0 0 0 0 0 0 0 0 0 0 0 0 0 0 0 0 0 0 0 0 0 0 0 1 1 1
0 0 0 0 0 0 0 0 0 0 0 0 0 0 0 0 0 0 0 0 0 0 0 0 0 0 0 0 0 0 0 0 0 0 0 0 0 0 0 0 0 0 0 0
0 0 0 0 0 0 0 0 0 0 0 0 0 0 0 0 0 0 0 0 0 0 0 0 0 0 0 0 0 0 0 0 0 0 0 0 0 0 0 0 0 0 0 0
0 0 0 0 0 0 0 0 0 0 0 0 0 0 0 0 0 0 0 0 0 0 0 0 0 0 0 0 0 0 0 0 0 0 0 0 0 0 0 0 0 0 1 1
0 0 0 0 0 0 0 0 0 0 0 0 0 0 0 0 0 0 0 0 0 0 0 0 0 0 0 0 0 0 0 0 0 0 0 0 0 0 0 0 0 0 0 0
0 0 0 0 0 0 0 0 0 0 0 0 0 0 0 0 0 0 0 0 0 0 0 0 0 0 0 0 0 0 0 0 0 0 0 0 0 0 0 0 0 0 0 0
0 0 0 0 0 0 0 0 0 0 0 0 0 0 0 0 0 0 0 0 0 0 0 0 0 0 0 0 0 0 0 0 0 0 0 0 0 0 0 0 0 0 0 0
0 0 0 0 0 0 0 0 0 0 0 0 0 0 0 0 0 0 0 0 0 0 0 0 0 0 0 0 0 0 0 0 0 0 0 0 0 0 0 0 0 0 0 0
0 0 0 0 0 0 0 0 0 0 0 0 0 0 0 0 0 0 0 0 0 0 0 0 0 0 0 0 0 0 0 0 0 0 0 0 0 0 0 0 0 0 0 0
0 0 0 0 0 0 0 0 0 0 0 0 0 0 0 0 0 0 0 0 0 0 0 0 0 0 0 0 0 0 0 0 0 0 0 0 0 0 0 0 0 0 0 0
0 0 0 0 0 0 0 0 0 0 0 0 0 0 0 0 0 0 0 0 0 0 0 0 0 0 0 0 0 0 0 0 0 0 0 0 0 0 0 0 0 0 0 0
0 0 0 0 0 0 0 0 0 0 0 0 0 0 0 0 0 0 0 0 0 0 0 0 0 0 0 0 0 0 0 0 0 0 0 0 0 0 0 0 0 0 0 0
0 0 0 0 0 0 0 0 0 0 0 0 0 0 0 0 0 0 0 0 0 0 0 0 0 0 0 0 0 0 0 0 0 0 0 0 0 0 0 0 0 0 0 0
0 0 0 0 0 0 0 0 0 0 0 0 0 0 0 0 0 0 0 0 0 0 0 0 0 0 0 0 0 0 0 0 0 0 0 0 0 0 0 0 0 0 0 0
0 0 0 0 0 0 0 0 0 0 0 0 0 0 0 0 0 0 0 0 0 0 0 0 0 0 0 0 0 0 0 0 0 0 0 0 0 0 0 0 0 0 0 0
0 0 0 0 0 0 0 0 0 0 0 0 0 0 0 0 0 0 0 0 0 0 0 0 0 0 0 0 0 0 0 0 0 0 0 0 0 0 0 0 0 0 0 0
0 0 0 0 0 0 0 0 0 0 0 0 0 0 0 0 0 0 0 0 0 0 0 0 0 0 0 0 0 0 0 0 0 0 0 0 0 0 0 0 0 0 0 0
0 0 0 0 0 0 0 0 0 0 0 0 0 0 0 0 0 0 0 0 0 0 0 0 0 0 0 0 0 0 0 0 0 0 0 0 0 0 0 0 0 0 0 0
0 0 0 0 0 0 0 0 0 0 0 0 0 0 0 0 0 0 0 0 0 0 0 0 0 0 0 0 0 0 0 0 0 0 0 0 0 0 0 0 0 0 0 0
0 0 0 0 0 0 0 0 0 0 0 0 0 0 0 0 0 0 0 0 0 0 0 0 0 0 0 0 0 0 0 0 0 0 0 0 0 0 0 0 0 0 0 0
0 0 0 0 0 0 0 0 0 0 0 0 0 0 0 0 0 0 0 0 0 0 0 0 0 0 0 0 0 0 0 0 0 0 0 0 0 0 0 0 0 0 0 0
0 0 0 0 0 0 0 0 0 0 0 0 0 0 0 0 0 0 0 0 0 0 0 0 0 0 0 0 0 0 0 0 0 0 0 0 0 0 0 0 0 0 0 0
0 0 0 0 0 0 0 0 0 0 0 0 0 0 0 0 0 0 0 0 0 0 0 0 0 0 0 0 0 0 0 0 0 0 0 0 0 0 0 0 0 0 0 0
Wind_Speed
3 6 2 2 3 3 3 4 3 2 4 5 6 6 4 3 4 4 4 4 4 3 3 5 6 6 7 7 7 7 7 7 6 4 4 4 4 4 4 3 4 4 4 4
6 2 2 1 4 7 7 7 3 1 2 5 6 4 2 2 3 4 3 2 3 4 5 6 6 6 7 7 7 7 7 7 6 4 4 3 4 4 4 3 4 4 4 4
6 3 1 6 6 7 5 4 3 3 1 4 7 2 1 1 3 3 2 1 2 3 4 5 6 6 6 7 7 7 7 8 7 6 4 4 3 3 3 4 3 4 4 4
4 1 5 6 4 4 1 1 3 3 3 2 5 3 4 2 1 1 1 1 3 3 3 4 5 6 7 7 7 7 7 7 7 6 5 5 4 4 4 4 4 5 4 4
2 2 5 4 1 1 3 2 1 1 2 0 1 4 4 2 1 1 1 1 2 3 3 4 4 5 6 7 7 7 7 7 8 7 6 5 4 4 4 4 5 4 4 4
3 2 3 1 1 1 1 5 6 5 5 2 3 5 4 3 4 2 1 1 2 3 3 4 4 5 5 6 6 7 7 7 8 8 7 6 6 6 5 5 5 4 3 3
4 4 3 3 4 6 6 6 5 6 4 4 1 3 4 4 4 4 3 1 2 2 3 4 5 6 6 7 7 7 8 8 8 8 7 7 7 6 5 5 5 4 3 3
4 2 2 2 1 1 1 6 6 2 3 4 3 0 4 3 3 3 3 1 1 2 2 3 4 5 5 6 7 7 7 7 8 8 8 7 7 5 4 5 4 4 3 3
6 4 2 1 1 2 1 1 5 5 0 1 2 1 3 1 2 2 2 1 2 2 2 3 4 4 5 6 6 6 6 7 8 8 7 7 7 6 6 6 5 4 4 3
7 3 3 1 3 2 1 2 5 3 1 2 3 3 5 5 5 3 3 2 2 2 3 3 4 4 4 4 5 5 5 6 6 7 6 6 7 7 7 6 7 6 6 5
4 6 1 2 0 1 3 3 4 3 4 4 3 6 5 8 7 6 5 4 3 2 3 3 4 4 4 4 4 4 5 5 6 7 6 7 7 7 7 6 7 7 6 6
3 6 2 2 3 0 2 3 4 3 1 2 3 7 3 6 6 6 5 4 3 3 3 4 4 4 4 4 4 4 4 5 5 5 6 7 7 7 7 7 7 7 7 6
4 6 4 4 6 3 0 2 4 5 3 2 2 7 2 4 5 5 5 5 3 3 3 3 3 3 4 3 3 3 4 4 4 5 5 6 7 7 7 7 7 7 7 7
5 4 6 6 7 5 3 4 4 5 3 2 5 6 4 6 7 6 6 5 4 4 3 3 3 3 3 2 2 2 3 3 3 4 5 6 6 6 6 6 7 7 7 7
5 3 2 5 6 5 5 6 6 5 7 6 6 6 9 10 10 9 7 6 5 4 3 3 2 3 2 2 2 2 2 3 3 3 4 5 5 6 6 7 7 7 7 7
3 2 0 3 5 4 4 6 7 6 5 6 5 6 6 6 6 6 7 7 5 4 4 3 2 2 2 2 2 1 1 2 2 3 3 4 5 6 6 6 6 7 7 7
2 2 2 3 3 1 6 7 9 6 6 7 7 8 4 5 8 10 9 7 7 5 4 4 3 3 3 3 3 2 1 1 2 2 3 4 4 5 6 6 6 6 6 6
4 3 3 1 2 3 8 5 6 6 6 7 6 6 10 9 9 8 8 8 7 6 5 3 2 2 2 2 2 1 1 1 2 2 2 3 4 4 5 5 6 5 4 5
4 5 3 2 1 6 6 3 3 3 5 6 7 8 8 5 3 3 6 8 8 7 6 4 3 3 2 2 3 3 2 2 2 1 1 2 2 3 4 5 5 4 4 5
5 6 5 3 0 4 6 3 2 3 5 5 8 9 8 8 4 7 7 7 7 6 5 4 3 3 3 3 4 4 2 2 1 1 1 1 2 2 3 4 3 3 3 4
2 3 3 3 3 8 7 1 4 2 7 4 7 10 11 11 9 6 7 7 7 7 6 5 4 3 3 4 5 4 3 3 3 2 0 1 2 1 2 3 3 3 3 4
7 5 4 4 2 8 5 5 6 10 5 3 6 8 10 8 6 5 8 8 8 7 6 5 4 4 3 4 5 5 4 4 3 2 1 0 1 1 2 3 3 3 4 4
7 9 8 9 9 8 6 10 8 6 5 4 6 7 9 8 7 8 8 8 8 8 7 5 5 5 4 5 6 6 5 4 3 2 1 1 0 1 2 2 2 3 3 3
4 4 4 3 7 6 7 7 5 6 6 5 6 8 9 9 10 9 8 8 8 7 7 6 6 5 5 5 6 6 6 5 4 3 2 2 2 1 1 1 1 2 2 2
3 1 1 4 7 6 5 6 7 6 4 4 4 7 11 11 10 10 9 9 8 8 6 6 6 7 7 6 6 6 6 6 5 4 3 3 3 3 2 1 0 0 1 1
3 1 1 5 6 4 6 5 3 4 5 5 5 5 6 10 11 10 10 9 9 8 7 7 7 7 7 7 7 6 6 6 6 4 4 3 3 3 2 2 1 2 2 1
Wind_Direction
44 68 86 194 179 159 134 124 134 166 148 116 134 145 165 144 103 92 74 54 31 8 348 355 358 356 353 350 348 343 341 336 335 328 324 316 312 303 296 285 276 269 260 247
48 54 250 107 71 77 83 90 90 91 156 117 125 130 158 140 120 120 105 65 16 359 353 350 355 356 349 345 343 341 338 331 328 317 301 283 287 286 282 287 289 275 267 254
145 218 68 75 63 74 73 117 155 188 80 92 109 75 126 85 96 97 93 65 8 7 351 345 350 347 345 344 339 338 330 329 326 323 317 316 312 307 311 309 299 288 278 264
110 36 75 76 60 83 124 185 165 160 126 215 154 170 229 193 111 70 46 10 352 348 349 343 345 342 338 333 332 330 329 328 328 329 330 328 322 307 292 289 285 291 284 273
88 69 73 73 41 104 220 251 264 199 159 315 114 134 245 181 198 251 264 317 339 339 352 348 339 329 328 331 335 333 332 332 333 334 331 326 321 305 300 303 301 299 291 276
78 58 91 126 313 316 20 24 25 46 70 336 250 151 232 224 205 209 246 321 325 334 347 340 332 333 332 334 336 336 337 333 335 338 339 337 331 327 331 328 319 313 304 288
47 14 12 40 21 10 55 64 27 9 14 267 331 114 230 218 189 175 178 245 303 324 341 334 337 339 335 336 336 336 340 338 339 342 343 340 335 334 334 324 318 320 317 310
126 288 317 30 107 283 28 127 140 191 240 284 6 137 248 212 173 156 168 198 321 329 323 325 323 326 327 331 332 335 341 339 340 344 343 340 340 338 333 328 325 321 312 299
149 219 287 325 22 114 56 106 167 143 226 347 314 300 299 204 171 174 180 186 318 315 310 309 314 319 322 327 326 329 336 338 340 343 342 346 348 348 343 340 338 330 328 328
132 157 254 247 13 351 133 136 72 83 80 319 293 245 232 209 209 197 194 214 268 294 305 304 308 307 311 318 320 331 338 335 335 345 350 353 348 350 352 357 0 357 354 357
110 124 110 36 25 268 28 51 83 109 147 154 274 270 224 192 190 191 204 214 232 256 268 277 289 296 305 321 330 340 343 343 346 349 349 352 353 352 357 5 4 2 5 10
88 108 93 308 307 266 142 144 131 130 266 164 199 268 252 177 183 185 197 211 222 241 250 262 281 301 317 323 328 339 342 346 344 347 353 356 357 0 5 6 2 5 9 11
92 103 89 345 334 339 179 182 143 131 118 142 203 270 258 185 191 197 195 207 223 243 257 270 292 299 305 310 317 329 337 339 345 356 3 3 2 4 8 6 5 6 11 17
107 105 153 187 213 203 200 209 169 123 140 237 231 242 218 213 211 211 208 209 219 237 247 264 284 284 289 293 301 321 334 335 351 7 13 10 2 2 5 7 10 11 16 23
104 113 207 223 214 181 192 199 193 180 188 198 233 226 228 210 204 203 203 206 216 232 241 245 257 267 275 275 290 311 334 343 3 19 17 7 0 5 10 13 13 14 20 25
97 132 299 281 239 206 230 225 210 215 208 214 227 252 236 188 179 191 198 196 209 223 227 236 247 254 256 242 242 277 334 348 26 33 14 5 11 13 11 11 13 18 20 19
93 121 86 301 309 20 277 241 206 212 208 189 212 231 169 169 190 196 199 200 206 209 213 219 233 239 241 228 208 210 241 28 47 37 14 7 14 17 9 12 17 17 17 21
125 108 114 40 42 247 256 261 190 202 228 209 205 192 178 191 197 198 192 190 195 197 201 210 224 235 229 204 184 168 119 72 63 43 14 3 12 13 7 12 14 10 16 23
126 124 98 90 319 287 293 276 162 180 268 218 195 188 190 168 137 242 211 187 188 194 194 198 200 191 182 177 162 132 112 87 74 47 2 345 1 11 11 9 4 5 21 27
70 89 103 99 51 262 263 269 126 89 285 253 183 181 172 140 164 242 214 187 184 184 182 181 174 162 162 171 145 130 135 131 150 226 287 325 357 16 12 3 4 11 29 32
58 59 113 160 237 267 258 194 83 114 250 254 181 178 170 180 199 208 176 177 178 181 185 174 167 172 184 171 146 142 163 192 213 211 231 1 4 18 24 16 20 29 37 39
169 161 185 153 201 265 233 150 184 219 234 219 188 183 182 198 196 176 171 176 179 183 185 176 174 192 194 175 156 162 195 214 208 191 179 357 358 16 62 46 33 37 46 48
188 185 181 183 212 237 210 205 218 190 205 216 193 192 176 173 178 178 179 181 186 188 191 186 182 193 201 191 174 179 209 204 189 180 197 208 73 52 72 76 57 40 42 54
269 174 150 231 264 257 246 247 250 214 218 218 193 181 170 176 181 182 183 187 191 194 194 191 182 190 206 207 201 199 198 189 179 189 208 197 172 143 81 71 75 71 49 53
282 146 166 266 284 306 301 258 248 246 246 230 194 183 181 178 183 185 188 193 195 196 196 187 189 199 210 207 209 209 196 180 183 198 207 199 190 179 169 149 118 155 228 205
344 4 216 249 265 242 265 282 244 224 238 226 201 194 193 186 188 188 194 197 196 197 194 193 198 204 209 203 209 210 196 183 182 196 206 202 197 193 186 183 242 308 260 272